[[{"header":{"parameterUnit":"m.s-1","parameterCategory":1,"la1":30.2991,"la2":30.254,"lo1":-89.0895,"lo2":-89.0444,"dy":0.0017,"dx":0.0017,"nx":28,"ny":28,"refTime":"2025-06-08T03:00:00:Z","depth":0,"parameterNumber":2,"parameterNumberName":"U-component_of_WINDS"},"data":[0,0,0,0,0,0,0,0,0,0,0,0,0,0,0,0,0,0,0,0,0,0,0,0,0,0,0,0,0,0,0,0,0,0,0,0,0,0,0,0,0,0,0,0,0,0,0,0,0,0,0,0,0,0,0,0,0,0,2.8701,2.8706,0,2.9104,2.9108,2.9113,2.92,2.9197,2.9194,2.9191,2.9605,2.9618,2.9632,0,0,0,0,0,0,0,0,0,0,0,0,0,2.8007,2.8019,2.8701,2.8706,2.8711,2.9103,2.9109,2.9114,2.92,2.9197,2.9193,2.919,2.96,2.9617,2.9633,0,0,0,0,0,0,0,0,0,0,0,0,0,2.8349,2.8023,2.87,2.8801,2.8814,2.9102,2.9109,2.9116,2.9201,2.9196,2.9192,2.9188,2.9595,2.9615,2.9635,2.9852,0,0,2.9699,2.9708,0,0,0,0,0,0,0,0,2.8329,2.8374,2.8781,2.8795,2.881,2.9097,2.9016,2.9362,2.9202,2.9054,2.9191,2.9186,2.944,2.9473,2.9558,2.9871,2.9889,2.97,2.9713,2.9722,2.9728,0,0,0,0,0,0,0,2.8306,2.8357,2.886,2.8787,2.8805,2.8827,2.887,2.9082,2.9267,2.9067,2.9074,2.912,2.9447,2.9538,2.9568,2.9895,2.97,2.9718,2.9731,2.9739,3.0404,3.0409,0,0,0,0,0,0,2.8264,2.8337,2.8848,2.8873,2.8554,2.8843,2.8892,2.9009,2.9265,2.9299,2.9124,2.9123,2.9505,2.9544,2.9583,2.9853,2.9722,2.9741,2.9753,3.0399,3.0405,3.0411,0,0,0,0,0,0,2.8249,2.8309,2.8831,2.8607,2.8675,2.8859,2.8991,2.902,2.9111,2.9308,2.9341,2.9183,2.9503,2.9554,2.9784,2.9868,2.975,2.9769,3.0393,3.0401,3.0408,3.0393,0,0,0,0,0,0,2.8228,2.8303,2.8387,2.8608,2.8687,2.9025,2.8996,2.9031,2.9146,2.9149,2.9372,2.9405,2.9503,2.9753,2.9804,2.9895,2.9785,3.0386,3.0396,3.0406,3.0387,3.04,3.041,0,0,0,0,0,2.8203,2.8367,2.839,2.8452,2.8796,2.903,2.9075,2.9184,2.9153,2.9239,2.9365,2.9398,2.985,2.9775,2.9834,2.9932,3.0381,3.0393,3.0405,3.0382,3.0397,3.041,0,0,0,0,0,0,2.8151,2.8398,2.8427,2.8667,2.8826,2.9044,2.9156,2.9197,2.9369,2.9365,2.9493,2.9543,2.9765,2.9872,2.9784,3.0154,3.0114,3.0139,3.0076,3.0093,3.0104,3.0074,2.9802,0,0,0,0,0,2.8167,2.8337,2.8543,2.8735,2.8814,2.897,2.9077,2.9147,2.9318,2.9386,2.9529,2.9694,2.9873,2.9989,3.0165,3.0402,3.0452,3.0499,3.051,3.0519,3.0538,3.0671,3.0694,3.045,3.045,3.045,0,0,2.8203,2.8359,2.8458,2.8729,2.8861,2.9033,2.9027,2.921,2.9339,2.9414,2.964,2.975,2.9943,3.0176,3.0287,3.0272,3.0617,3.0534,3.0539,3.0555,3.0686,3.0709,3.0729,3.0458,3.0457,3.0455,0,0,2.8357,2.8491,2.8666,2.8798,2.8998,2.9101,2.9142,2.9354,2.943,2.9658,2.9717,2.9872,3.0179,3.0313,3.0422,3.0624,3.0661,3.0678,3.0739,3.0867,3.0886,3.0904,3.0976,3.1,3.0696,3.0697,3.0697,0,2.8376,2.8638,2.875,2.8931,2.9048,2.9122,2.93,2.9422,2.9669,2.9748,2.9728,3.0113,3.0248,3.0515,3.0563,3.0649,3.07,3.0653,3.0874,3.0893,3.0912,3.0982,3.1008,3.0697,3.0697,3.0697,3.0697,0,2.8652,2.8833,2.895,2.9185,2.9316,2.9493,2.9632,2.975,2.9809,2.9913,3.0144,3.0308,3.0518,3.0587,3.0646,3.0862,3.0846,3.0849,3.0812,3.0934,3.1002,3.103,3.0698,3.0698,3.0698,3.0698,0,0,2.8785,2.908,2.9121,2.9228,2.9453,2.9595,2.9776,2.9981,3.0079,3.0247,3.0401,3.0658,3.0661,3.0784,3.0859,3.0971,3.112,3.0961,3.0967,3.0984,3.1368,3.1364,3.1394,3.1146,3.1151,3.1156,3.1351,0,2.8966,2.9291,2.9397,2.9667,2.9835,2.9908,3.0065,3.022,3.0322,3.048,3.0594,3.0773,3.0764,3.0839,3.0953,3.1078,3.1199,3.1065,3.1291,3.1298,3.1241,3.143,3.1428,3.1604,3.1379,3.1383,3.1387,0,2.9221,2.9391,2.9678,2.9881,2.9956,3.0095,3.0291,3.044,3.0617,3.0684,3.082,3.0886,3.1077,3.1028,3.1293,3.1199,3.1298,3.1373,3.1383,3.1409,3.135,3.1461,3.1664,3.169,3.143,3.1426,3.1423,0,2.9289,2.959,2.9801,2.9891,3.0133,3.0229,3.0334,3.0507,3.0622,3.0793,3.087,3.106,3.1165,3.1311,3.1427,3.138,3.1682,3.1642,3.1743,3.174,3.1804,3.1798,3.2025,3.1866,3.1866,3.1865,3.1864,0,2.948,2.9653,2.9834,2.9964,3.016,3.0279,3.0469,3.0578,3.0731,3.0883,3.0957,3.1098,3.1241,3.1401,3.1492,3.1698,3.1745,3.1804,3.1826,3.1798,3.179,3.1865,3.1856,3.1872,3.1871,3.1869,3.1868,0,2.9589,2.9718,2.9952,3.0162,3.0218,3.0353,3.0532,3.0661,3.0765,3.0957,3.1008,3.1173,3.1365,3.1494,3.174,3.1801,3.2025,3.2045,3.1965,3.1976,3.2069,3.2058,3.2353,3.2397,3.2207,3.2208,3.221,0,2.9703,2.9838,3.0061,3.0168,3.0273,3.0444,3.0563,3.0685,3.0805,3.1015,3.1118,3.1315,3.1479,3.1782,3.1924,3.2112,3.2137,3.2227,3.2166,3.2133,3.2139,3.2129,3.2143,3.2237,3.2238,3.2239,3.224,0,2.9891,2.9948,3.0115,3.0305,3.0444,3.06,3.0756,3.0839,3.0988,3.1119,3.1316,3.1442,3.1693,3.1887,3.2088,3.2197,3.2244,3.2258,3.2291,3.2264,3.2212,3.2242,3.1991,3.2251,3.225,3.2249,3.2249,3.2248,3.0007,3.0129,3.0305,3.049,3.0619,3.0763,3.0894,3.1014,3.118,3.1393,3.1455,3.1659,3.1832,3.2107,3.2219,3.238,3.2372,3.242,3.2433,3.2443,3.2443,3.2185,3.2417,3.2417,3.2417,3.2417,3.2417,0,3.0199,3.0315,3.0483,3.0699,3.0843,3.0873,3.1047,3.1166,3.1345,3.1502,3.1661,3.1887,3.2075,3.2231,3.2425,3.2525,3.2551,3.2572,3.2566,3.259,3.2439,3.2391,3.2547,3.2547,3.2547,3.2547,3.2547,3.2547,3.0316,3.0525,3.0602,3.0875,3.0991,3.1192,3.1288,3.1421,3.1547,3.1795,3.1952,3.2052,3.2208,3.2414,3.2588,3.2629,3.2698,3.2714,3.2759,3.2616,3.2601,3.2587,3.2542,3.2727,3.2728,3.2897,3.2898,3.29]},{"header":{"parameterUnit":"m.s-1","parameterCategory":1,"la1":30.2991,"la2":30.254,"lo1":-89.0895,"lo2":-89.0444,"dy":0.0017,"dx":0.0017,"nx":28,"ny":28,"refTime":"2025-06-08T03:00:00:Z","depth":0,"parameterNumber":3,"parameterNumberName":"V-component_of_WINDS"},"data":[0,0,0,0,0,0,0,0,0,0,0,0,0,0,0,0,0,0,0,0,0,0,0,0,0,0,0,0,0,0,0,0,0,0,0,0,0,0,0,0,0,0,0,0,0,0,0,0,0,0,0,0,0,0,0,0,0,0,6.9492,6.9493,0,6.9564,6.9564,6.9565,6.9507,6.9504,6.9502,6.9499,6.9565,6.9569,6.9573,0,0,0,0,0,0,0,0,0,0,0,0,0,6.9295,6.9299,6.9492,6.9493,6.9494,6.9564,6.9565,6.9565,6.9507,6.9504,6.9501,6.9498,6.9564,6.9569,6.9574,0,0,0,0,0,0,0,0,0,0,0,0,0,6.9375,6.93,6.9492,6.9473,6.9472,6.9563,6.9565,6.9566,6.9508,6.9504,6.95,6.9497,6.9562,6.9568,6.9574,6.9685,0,0,6.9593,6.9595,0,0,0,0,0,0,0,0,6.937,6.9382,6.9475,6.9475,6.9474,6.9523,6.9519,6.9606,6.9509,6.9494,6.9499,6.9495,6.9554,6.956,6.9581,6.9688,6.9691,6.9593,6.9597,6.96,6.9601,0,0,0,0,0,0,0,6.9365,6.9379,6.952,6.9476,6.9476,6.9458,6.9465,6.9535,6.9543,6.9495,6.9491,6.9501,6.9552,6.9576,6.9582,6.9692,6.9593,6.9599,6.9602,6.9605,6.9891,6.9895,0,0,0,0,0,0,6.9363,6.9375,6.9518,6.9522,6.9412,6.9465,6.9473,6.951,6.9542,6.9544,6.9504,6.9498,6.9567,6.9575,6.9585,6.9715,6.96,6.9605,6.9609,6.9887,6.9892,6.9896,0,0,0,0,0,0,6.9359,6.9376,6.9515,6.9447,6.9464,6.9472,6.9515,6.9514,6.9537,6.9549,6.9549,6.9527,6.9565,6.9576,6.9661,6.9716,6.9608,6.9613,6.9882,6.9888,6.9894,6.9977,0,0,0,0,0,0,6.9353,6.9375,6.9419,6.9449,6.9468,6.9592,6.9518,6.9518,6.9549,6.9541,6.9571,6.9572,6.9563,6.9652,6.9667,6.9723,6.9618,6.9877,6.9885,6.9892,6.997,6.9985,6.9999,0,0,0,0,0,6.9346,6.9439,6.9422,6.9439,6.9524,6.9596,6.9606,6.9596,6.9553,6.9596,6.9604,6.9571,6.9708,6.9661,6.9677,6.9736,6.9874,6.9883,6.9891,6.9963,6.9982,6.9999,0,0,0,0,0,0,6.9412,6.9442,6.9424,6.9529,6.9561,6.9586,6.964,6.9617,6.9659,6.965,6.9633,6.964,6.9729,6.9741,6.9688,6.9844,6.9784,6.9796,6.9833,6.9851,6.9866,6.986,6.9623,0,0,0,0,0,6.944,6.9499,6.952,6.9611,6.9628,6.9632,6.9662,6.9652,6.9683,6.9695,6.9709,6.9738,6.9787,6.982,6.9866,6.9972,6.9975,7.002,7.0034,7.0046,7.0057,7.0111,7.013,6.9925,6.9925,6.9925,0,0,6.9496,6.9519,6.9557,6.9625,6.9648,6.9706,6.9643,6.9708,6.975,6.9704,6.9785,6.9796,6.9827,6.9922,6.9965,6.9935,7.0114,7.0058,7.0067,7.0071,7.0122,7.0141,7.0159,6.9931,6.993,6.9929,0,0,6.9627,6.9653,6.973,6.9755,6.9792,6.9794,6.9812,6.9841,6.9847,6.9929,6.9895,6.9944,7.003,7.0053,7.0076,7.0216,7.0186,7.0232,7.0307,7.036,7.0377,7.0391,7.0438,7.0456,7.0242,7.0243,7.0243,0,6.9691,6.9781,6.9772,6.9839,6.9869,6.9833,6.9909,6.9933,6.9982,7.0001,6.9968,7.0075,7.0094,7.0192,7.0227,7.0247,7.0265,7.0227,7.0376,7.039,7.0403,7.0448,7.0466,7.0248,7.0247,7.0247,7.0246,0,6.9857,6.9919,6.9977,7.0028,7.0064,7.0135,7.0134,7.0171,7.0157,7.0162,7.0243,7.0265,7.0314,7.0337,7.0323,7.0433,7.0413,7.0379,7.0317,7.0427,7.0469,7.0487,7.0255,7.0253,7.0252,7.025,0,0,7.0031,7.0077,7.0098,7.012,7.0158,7.0204,7.0273,7.0323,7.0354,7.0389,7.0444,7.0518,7.0486,7.0512,7.05,7.0547,7.0654,7.0506,7.0506,7.0531,7.0774,7.0798,7.0819,7.0635,7.0639,7.0641,7.077,0,7.0163,7.0286,7.0279,7.0392,7.0448,7.0414,7.0474,7.0502,7.0508,7.0553,7.0558,7.061,7.0565,7.058,7.0625,7.0632,7.0702,7.0622,7.0683,7.0686,7.0675,7.0841,7.0868,7.0988,7.0787,7.079,7.0792,0,7.0333,7.0376,7.0496,7.0525,7.0548,7.0602,7.0646,7.0692,7.0722,7.0722,7.0752,7.0733,7.0799,7.0738,7.0827,7.0773,7.0798,7.0804,7.0809,7.0812,7.0744,7.0847,7.1027,7.1044,7.0818,7.0816,7.0814,0,7.0446,7.0533,7.0616,7.0636,7.0672,7.071,7.0726,7.0753,7.0783,7.0822,7.084,7.0886,7.091,7.0944,7.0936,7.0893,7.1026,7.0965,7.1026,7.1026,7.1054,7.1052,7.1238,7.1074,7.1073,7.1073,7.1073,0,7.0592,7.0666,7.0667,7.0718,7.0798,7.0789,7.0868,7.088,7.0904,7.0953,7.0927,7.0973,7.0962,7.1007,7.1001,7.1075,7.1086,7.1086,7.1083,7.1088,7.1087,7.1102,7.1092,7.1078,7.1077,7.1076,7.1075,0,7.0731,7.0735,7.0822,7.085,7.0858,7.0916,7.0938,7.0984,7.0988,7.1051,7.1066,7.1071,7.1123,7.1119,7.1178,7.1173,7.1264,7.1252,7.1254,7.1251,7.1311,7.1305,7.1512,7.1537,7.1358,7.136,7.1361,0,7.0824,7.088,7.0914,7.0947,7.0966,7.1019,7.105,7.1042,7.1075,7.1113,7.1154,7.1205,7.1244,7.1329,7.1336,7.138,7.1367,7.1437,7.1374,7.1376,7.1366,7.1362,7.1366,7.1449,7.1451,7.1452,7.1454,0,7.0986,7.0985,7.1033,7.1081,7.112,7.1157,7.119,7.1218,7.1213,7.1251,7.1305,7.1336,7.1397,7.1446,7.1488,7.1501,7.1476,7.1474,7.149,7.1494,7.1492,7.1491,7.1286,7.1469,7.1467,7.1466,7.1465,7.1465,7.1103,7.1151,7.1182,7.1236,7.1261,7.1293,7.1337,7.1347,7.1393,7.1443,7.1435,7.1495,7.1521,7.1576,7.1593,7.1638,7.1613,7.1637,7.1642,7.1648,7.1653,7.1487,7.1646,7.1645,7.1645,7.1645,7.1644,0,7.1263,7.1281,7.1331,7.138,7.1421,7.1397,7.1432,7.1467,7.1522,7.155,7.159,7.1651,7.1699,7.171,7.1755,7.1788,7.1778,7.18,7.1796,7.1799,7.1675,7.1655,7.1808,7.1808,7.1808,7.1808,7.1808,7.1808,7.135,7.143,7.1433,7.1523,7.154,7.1601,7.1623,7.1651,7.1673,7.1744,7.1784,7.1792,7.1812,7.1859,7.19,7.1902,7.1918,7.1945,7.1942,7.1825,7.1808,7.1793,7.1774,7.195,7.195,7.2063,7.2064,7.2065]}]]